When you browse on this site, cookies collect data to enhance your experience and personalize the content and advertising you see.
Visit our Privacy Policy to learn more. By continuing to use the site, you agree to this use of cookies and data.
  • In Österreich
  • Länderverzeichnis
  • Für 7 Tage
  • Wassertemperatur
  • Satellitenkarten
  • Wetterkarte
  • News
  • Widgets
  • user-avatar
    Anmelden

    Stündliche Wetter Etschmiadsin

    Heute, 27 Juni, Donnerstag

    Zeit Temperatur Niederschläge Wind Luftdruck Luftfeuchtigkeit
    00:00 +24°C° 0.4 mm 2 m/S 687 mmHg 67%
    01:00 +24°C° 0.1 mm 1 m/S 687 mmHg 67%
    02:00 +23°C° 0.1 mm 1 m/S 687 mmHg 68%
    03:00 +23°C° 0.1 mm 1 m/S 687 mmHg 68%
    04:00 +24°C° 0.1 mm 1 m/S 687 mmHg 66%
    05:00 +24°C° 0.1 mm 1 m/S 687 mmHg 64%
    06:00 +25°C° 0.1 mm 1 m/S 687 mmHg 62%
    07:00 +26°C° 0 mm 1 m/S 687 mmHg 56%
    08:00 +28°C° 0 mm 1 m/S 687 mmHg 50%
    09:00 +30°C° 0 mm 1 m/S 687 mmHg 45%
    10:00 +31°C° 0.1 mm 1 m/S 686 mmHg 41%
    11:00 +32°C° 0.1 mm 1 m/S 686 mmHg 37%
    12:00 +34°C° 0.1 mm 1 m/S 686 mmHg 33%
    13:00 +34°C° 0.1 mm 1 m/S 686 mmHg 31%
    14:00 +35°C° 0.1 mm 1 m/S 686 mmHg 30%
    15:00 +36°C° 0.1 mm 1 m/S 685 mmHg 28%
    16:00 +35°C° 0.1 mm 3 m/S 685 mmHg 32%
    17:00 +34°C° 0.1 mm 4 m/S 685 mmHg 36%
    18:00 +33°C° 0.1 mm 6 m/S 684 mmHg 40%
    19:00 +29°C° 0.8 mm 4 m/S 684 mmHg 50%
    20:00 +26°C° 0.8 mm 3 m/S 684 mmHg 59%
    21:00 +24°C° 0.8 mm 1 m/S 684 mmHg 69%
    22:00 +24°C° 0 mm 1 m/S 684 mmHg 69%
    23:00 +23°C° 0 mm 1 m/S 684 mmHg 69%

    Morgen, 28 Juni, Freitag

    Zeit Temperatur Niederschläge Wind Luftdruck Luftfeuchtigkeit
    00:00 +23°C° 0 mm 2 m/S 683 mmHg 68%
    01:00 +23°C° 0 mm 1 m/S 683 mmHg 68%
    02:00 +22°C° 0 mm 1 m/S 683 mmHg 69%
    03:00 +22°C° 0 mm 1 m/S 683 mmHg 69%
    04:00 +23°C° 0.1 mm 1 m/S 683 mmHg 67%
    05:00 +23°C° 0.1 mm 1 m/S 683 mmHg 65%
    06:00 +24°C° 0.1 mm 1 m/S 683 mmHg 63%
    07:00 +25°C° 0 mm 1 m/S 683 mmHg 57%
    08:00 +27°C° 0 mm 1 m/S 682 mmHg 52%
    09:00 +29°C° 0 mm 1 m/S 682 mmHg 46%
    10:00 +30°C° 0.2 mm 1 m/S 682 mmHg 42%
    11:00 +31°C° 0.2 mm 2 m/S 682 mmHg 39%
    12:00 +34°C° 0.2 mm 2 m/S 681 mmHg 35%
    13:00 +34°C° 0.1 mm 2 m/S 681 mmHg 33%
    14:00 +35°C° 0.1 mm 2 m/S 681 mmHg 32%
    15:00 +36°C° 0.1 mm 2 m/S 680 mmHg 30%
    16:00 +32°C° 0.5 mm 2 m/S 680 mmHg 39%
    17:00 +29°C° 0.5 mm 3 m/S 680 mmHg 47%
    18:00 +26°C° 0.5 mm 3 m/S 679 mmHg 56%
    19:00 +26°C° 0.3 mm 3 m/S 680 mmHg 59%
    20:00 +25°C° 0.3 mm 3 m/S 680 mmHg 62%
    21:00 +24°C° 0.3 mm 3 m/S 681 mmHg 65%
    22:00 +24°C° 0.1 mm 3 m/S 681 mmHg 66%
    23:00 +24°C° 0.1 mm 2 m/S 680 mmHg 66%

    übermorgen, 29 Juni, Samstag

    Zeit Temperatur Niederschläge Wind Luftdruck Luftfeuchtigkeit
    00:00 +23°C° 0.1 mm 2 m/S 680 mmHg 67%
    01:00 +23°C° 0.1 mm 1 m/S 680 mmHg 67%
    02:00 +22°C° 0.1 mm 1 m/S 679 mmHg 68%
    03:00 +22°C° 0.1 mm 1 m/S 679 mmHg 68%
    04:00 +22°C° 0.6 mm 1 m/S 679 mmHg 69%
    05:00 +22°C° 0.6 mm 1 m/S 679 mmHg 70%
    06:00 +22°C° 0.6 mm 1 m/S 679 mmHg 70%
    07:00 +23°C° 0.5 mm 1 m/S 679 mmHg 66%
    08:00 +24°C° 0.5 mm 1 m/S 679 mmHg 62%
    09:00 +25°C° 0.5 mm 1 m/S 679 mmHg 58%
    10:00 +27°C° 0.2 mm 1 m/S 679 mmHg 52%
    11:00 +29°C° 0.2 mm 1 m/S 679 mmHg 47%
    12:00 +31°C° 0.2 mm 1 m/S 679 mmHg 41%
    13:00 +32°C° 0.2 mm 2 m/S 679 mmHg 38%
    14:00 +32°C° 0.2 mm 2 m/S 678 mmHg 35%
    15:00 +34°C° 0.2 mm 2 m/S 678 mmHg 33%
    16:00 +30°C° 2.2 mm 3 m/S 678 mmHg 45%
    17:00 +26°C° 2.2 mm 3 m/S 678 mmHg 58%
    18:00 +22°C° 2.2 mm 4 m/S 677 mmHg 70%
    19:00 +22°C° 0.3 mm 3 m/S 678 mmHg 72%
    20:00 +21°C° 0.3 mm 3 m/S 679 mmHg 73%
    21:00 +21°C° 0.3 mm 2 m/S 679 mmHg 75%
    22:00 +21°C° 0 mm 2 m/S 679 mmHg 74%
    23:00 +20°C° 0 mm 2 m/S 679 mmHg 74%

    30 Juni, Sonntag

    Zeit Temperatur Niederschläge Wind Luftdruck Luftfeuchtigkeit
    00:00 +20°C° 0 mm 2 m/S 679 mmHg 74%
    01:00 +20°C° 0.1 mm 3 m/S 680 mmHg 73%
    02:00 +20°C° 0.1 mm 3 m/S 680 mmHg 71%
    03:00 +20°C° 0.1 mm 3 m/S 680 mmHg 70%
    04:00 +20°C° 0.1 mm 3 m/S 680 mmHg 69%
    05:00 +20°C° 0.1 mm 2 m/S 680 mmHg 68%
    06:00 +20°C° 0.1 mm 2 m/S 680 mmHg 66%
    07:00 +23°C° 0 mm 2 m/S 680 mmHg 61%
    08:00 +24°C° 0 mm 3 m/S 680 mmHg 55%
    09:00 +26°C° 0 mm 3 m/S 681 mmHg 50%
    10:00 +27°C° 0.1 mm 3 m/S 681 mmHg 45%
    11:00 +28°C° 0.1 mm 2 m/S 680 mmHg 41%
    12:00 +29°C° 0.1 mm 2 m/S 680 mmHg 37%
    13:00 +30°C° 0.2 mm 2 m/S 680 mmHg 36%
    14:00 +30°C° 0.2 mm 3 m/S 680 mmHg 34%
    15:00 +31°C° 0.2 mm 3 m/S 680 mmHg 33%
    16:00 +30°C° 0.3 mm 3 m/S 680 mmHg 37%
    17:00 +29°C° 0.3 mm 4 m/S 680 mmHg 40%
    18:00 +28°C° 0.3 mm 4 m/S 680 mmHg 43%
    19:00 +26°C° 0.4 mm 5 m/S 680 mmHg 50%
    20:00 +22°C° 0.4 mm 6 m/S 680 mmHg 57%
    21:00 +20°C° 0.4 mm 7 m/S 681 mmHg 64%
    22:00 +20°C° 0.4 mm 6 m/S 681 mmHg 63%
    23:00 +19°C° 0.4 mm 5 m/S 681 mmHg 62%

    1 Juli, Montag

    Zeit Temperatur Niederschläge Wind Luftdruck Luftfeuchtigkeit
    00:00 +19°C° 0.4 mm 4 m/S 681 mmHg 61%
    01:00 +19°C° 0.1 mm 4 m/S 681 mmHg 60%
    02:00 +18°C° 0.1 mm 4 m/S 681 mmHg 60%
    03:00 +18°C° 0.1 mm 4 m/S 682 mmHg 59%
    04:00 +18°C° 0 mm 4 m/S 682 mmHg 58%
    05:00 +18°C° 0 mm 4 m/S 682 mmHg 57%
    06:00 +18°C° 0 mm 4 m/S 682 mmHg 56%
    07:00 +19°C° 0 mm 4 m/S 682 mmHg 50%
    08:00 +21°C° 0 mm 4 m/S 683 mmHg 44%
    09:00 +22°C° 0 mm 4 m/S 683 mmHg 38%
    10:00 +24°C° 0 mm 3 m/S 683 mmHg 37%
    11:00 +25°C° 0 mm 3 m/S 683 mmHg 35%
    12:00 +26°C° 0 mm 3 m/S 683 mmHg 33%
    13:00 +26°C° 0.1 mm 4 m/S 683 mmHg 32%
    14:00 +26°C° 0.1 mm 5 m/S 683 mmHg 31%
    15:00 +27°C° 0.1 mm 5 m/S 683 mmHg 30%
    16:00 +26°C° 0 mm 6 m/S 684 mmHg 31%
    17:00 +24°C° 0 mm 6 m/S 684 mmHg 33%
    18:00 +23°C° 0 mm 6 m/S 684 mmHg 34%
    19:00 +22°C° 0 mm 6 m/S 685 mmHg 38%
    20:00 +20°C° 0 mm 5 m/S 685 mmHg 41%
    21:00 +17°C° 0 mm 5 m/S 686 mmHg 45%
    22:00 +17°C° 0 mm 4 m/S 686 mmHg 45%
    23:00 +17°C° 0 mm 4 m/S 686 mmHg 45%

    2 Juli, Dienstag

    Zeit Temperatur Niederschläge Wind Luftdruck Luftfeuchtigkeit
    00:00 +15°C° 0 mm 4 m/S 686 mmHg 46%
    01:00 +14°C° 0 mm 3 m/S 686 mmHg 47%
    02:00 +14°C° 0 mm 3 m/S 687 mmHg 48%
    03:00 +14°C° 0 mm 2 m/S 687 mmHg 49%
    04:00 +15°C° 0 mm 2 m/S 687 mmHg 49%
    05:00 +15°C° 0 mm 2 m/S 688 mmHg 48%
    06:00 +16°C° 0 mm 2 m/S 688 mmHg 47%
    07:00 +18°C° 0 mm 2 m/S 688 mmHg 43%
    08:00 +19°C° 0 mm 2 m/S 688 mmHg 39%
    09:00 +21°C° 0 mm 2 m/S 689 mmHg 35%
    10:00 +24°C° 0 mm 2 m/S 688 mmHg 34%
    11:00 +25°C° 0 mm 2 m/S 688 mmHg 32%
    12:00 +26°C° 0 mm 2 m/S 688 mmHg 30%
    13:00 +27°C° 0 mm 2 m/S 688 mmHg 30%
    14:00 +28°C° 0 mm 2 m/S 688 mmHg 29%
    15:00 +29°C° 0 mm 2 m/S 687 mmHg 28%
    16:00 +29°C° 0 mm 1 m/S 687 mmHg 29%
    17:00 +28°C° 0 mm 1 m/S 687 mmHg 30%
    18:00 +28°C° 0 mm 1 m/S 687 mmHg 31%
    19:00 +26°C° 0 mm 1 m/S 687 mmHg 36%
    20:00 +24°C° 0 mm 1 m/S 687 mmHg 41%
    21:00 +22°C° 0 mm 1 m/S 687 mmHg 47%
    22:00 +21°C° 0 mm 1 m/S 687 mmHg 48%
    23:00 +21°C° 0 mm 1 m/S 687 mmHg 50%
    Mehr zeigen